Home   Weather   Bridlington   Past weeks

Flag for United Kingdom Past Weather in Bridlington, England, United Kingdom — Yesterday and Last 2 Weeks

Now
38 °F

Chilly.


Feels Like: 29 °F
Forecast: 41 / 47 °F
Wind: 20 mph from North

Location: Bridlington Mrsc

Current Time: Apr 25, 2017 at 9:53:18 pm

Latest Report: Apr 25, 2017 at 9:00 pm


Visibility: N/A

Pressure: 29.94 "Hg

Humidity: 90%

Dew Point: 36 °F

Location of BridlingtonLocation

Past Weather in Bridlington — Graph

°F

Bridlington Temperature Yesterday

Maximum temperature yesterday: 51 °F (at 5:00 pm)
Minimum temperature yesterday: 39 °F (at 10:00 pm)
Average temperature yesterday: 45 °F

High & Low Weather Summary for the Past Weeks

 TemperatureHumidityPressure
High63 °F (Apr 20, 5:00 pm)99% (Apr 25, 3:00 pm)30.63 "Hg (Apr 25, 3:00 pm)
Low34 °F (Apr 25, 7:00 am)37% (Apr 15, 5:00 pm)29.80 "Hg (Apr 24, 6:00 pm)
Average47 °F72%30.17 "Hg
* Reported Apr 10 7:00 pm — Apr 25 7:00 pm, Bridlington, Weather by CustomWeather, © 2017

Note: Actual official high and low records may vary slightly from our data, if they occured in-between our weather recording intervals... More about our weather records

Advertising

Bridlington Weather History for the Previous 24 Hours

Scroll right to see more
 ConditionsComfort  
Time TempWeatherWind HumidityBarometerVisibility
7:00 pm
Tue, Apr 25
38 °FChilly.18 mph75%29.92 "HgN/A
6:00 pm40 °FChilly.18 mph85%29.91 "HgN/A
5:00 pm42 °FQuite cool.16 mph75%29.90 "HgN/A
4:00 pm40 °FChilly.18 mph89%29.90 "HgN/A
3:00 pm39 °FChilly.17 mph99%29.89 "HgN/A
2:00 pm44 °FQuite cool.20 mph83%29.85 "HgN/A
1:00 pm42 °FQuite cool.24 mph81%29.85 "HgN/A
12:00 pm44 °FQuite cool.17 mph77%29.86 "HgN/A
11:00 am44 °FQuite cool.18 mph62%29.86 "HgN/A
10:00 am42 °FQuite cool.18 mph66%29.85 "HgN/A
9:00 am41 °FQuite cool.15 mph71%29.85 "HgN/A
8:00 am37 °FChilly.14 mph78%29.85 "HgN/A
7:00 am34 °FChilly.12 mph87%29.85 "HgN/A
6:00 am34 °FChilly.13 mph89%29.83 "HgN/A
5:00 am35 °FChilly.10 mph91%29.83 "HgN/A
4:00 am36 °FChilly.10 mph86%29.83 "HgN/A
3:00 am34 °FChilly.12 mph97%29.82 "HgN/A
2:00 am35 °FChilly.16 mph86%29.82 "HgN/A
1:00 am38 °FChilly.14 mph63%29.81 "HgN/A
12:00 am37 °FChilly.15 mph67%29.80 "HgN/A
11:00 pm
Mon, Apr 24
39 °FChilly.15 mph57%29.81 "HgN/A
10:00 pm39 °FChilly.15 mph65%29.82 "HgN/A
9:00 pm41 °FQuite cool.10 mph61%29.81 "HgN/A
Weather by CustomWeather, © 2017

See weather overviewHow to use our weather pages